{"data":{"norad_id":59641,"epoch":"2026-09-20T23:43:35.033088Z","epoch_age_seconds":125938,"freshness":"FRESH","line1":"1 59641U 24082L   26263.98859992 -.00000074  00000+0  68231-5 0  9995","line2":"2 59641  43.0037 116.5821 0001380 272.2503  87.8191 15.27576545134684","mean_motion":15.27576545,"eccentricity":0.000138,"inclination_deg":43.0037,"raan_deg":116.5821,"arg_perigee_deg":272.2503,"mean_anomaly_deg":87.8191,"bstar":6.8231e-6,"rev_number":13468,"period_min":94.266961921702,"perigee_km":482.11259646314,"apogee_km":484.00628668102,"semimajor_km":6861.1964415721,"source":"CELESTRAK","updated_at":"2026-09-22T09:00:49.020430Z"}}